Weather History for KMCI - August, 2012

Change the Weather History Date:

Friday, August 17, 2012

  Actual Average Record
Temperature  
Mean Temperature 68 °F 77 °F  
Max Temperature 83 °F 88 °F 108 °F (1936)
Min Temperature 53 °F 67 °F 53 °F (2012)
Degree Days  
Heating Degree Days 0 0  
Month to date heating degree days 0 0  
Since 1 June heating degree days 9 9  
Since 1 July heating degree days 0 0  
Cooling Degree Days 3 12  
Month to date cooling degree days 208 221  
Year to date cooling degree days 1496 1017  
Since 1 June cooling degree days 1227 901  
Growing Degree Days 18 (Base 50)    
Moisture  
Dew Point 45 °F    
Average Humidity 52    
Maximum Humidity 83    
Minimum Humidity 21    
Precipitation  
Precipitation 0.00 in 0.13 in 3.15 in (2009)
Month to date precipitation 0.64 2.06  
Year to date precipitation 14.27 25.57  
Snow  
Snow 0.00 in 0.00 in 0.00 in ()
Month to date snowfall 0.0 0.0  
Since 1 June snowfall 0.0 0.0  
Since 1 July snowfall 0.0 0.0  
Snow Depth 0.00 in    
Sea Level Pressure  
Sea Level Pressure 30.06 in    
Wind  
Wind Speed 6 mph (North)    
Max Wind Speed 12 mph    
Max Gust Speed 18 mph    
Visibility 10 miles    
Events      
T = Trace of Precipitation, MM = Missing Value Source: NWS Daily Summary

Daily Weather History Graph

Daily Weather History Graph

Search for Another Location

Airport or City:

Trip Planner

Search our weather history database for the weather conditions in past years. The results will help you decide how hot, cold, wet, or windy it might be!

Date:

Astronomy

Aug. 17, 2012 Rise Set
Actual Time 6:34 AM CDT 8:10 PM CDT
Civil Twilight 6:05 AM CDT 8:39 PM CDT
Nautical Twilight 5:31 AM CDT 9:13 PM CDT
Astronomical Twilight 4:54 AM CDT 9:49 PM CDT
Moon 6:37 AM CDT (8/17) 7:55 PM CDT (8/17)
Length of Visible Light 14h 33m
Length of Day
13h 36m
New Moon, 0% of the Moon is Illuminated
Aug 17
New Moon
Aug 24
First Quarter
Aug 31
Full
Sep 8
Last Quarter
Sep 15
New

Hourly Weather History & Observations

Time (CDT) Temp. Dew Point Humidity Pressure Visibility Wind Dir Wind Speed Gust Speed Precip Events Conditions
12:53 AM 60.1 °F 48.9 °F 67% 30.08 in 10.0 mi NNW 3.5 mph - N/A   Clear
1:53 AM 59.0 °F 48.9 °F 69% 30.08 in 10.0 mi NNW 5.8 mph - N/A   Clear
2:53 AM 57.9 °F 48.9 °F 72% 30.07 in 10.0 mi NNW 9.2 mph - N/A   Clear
3:53 AM 55.9 °F 48.9 °F 77% 30.07 in 10.0 mi NNW 8.1 mph - N/A   Clear
4:53 AM 55.0 °F 48.9 °F 80% 30.07 in 10.0 mi NNW 6.9 mph - N/A   Clear
5:53 AM 54.0 °F 48.0 °F 80% 30.08 in 10.0 mi NNW 3.5 mph - N/A   Clear
6:53 AM 53.1 °F 46.9 °F 80% 30.10 in 10.0 mi North 4.6 mph - N/A   Clear
7:53 AM 57.9 °F 48.9 °F 72% 30.10 in 10.0 mi NNE 6.9 mph - N/A   Clear
8:53 AM 64.4 °F 50.0 °F 59% 30.12 in 10.0 mi NNE 6.9 mph - N/A   Clear
9:53 AM 69.1 °F 50.0 °F 51% 30.11 in 10.0 mi NE 6.9 mph - N/A   Partly Cloudy
10:53 AM 73.0 °F 48.0 °F 41% 30.11 in 10.0 mi NE 9.2 mph - N/A   Partly Cloudy
11:53 AM 75.9 °F 44.1 °F 32% 30.10 in 10.0 mi NNE 9.2 mph - N/A   Partly Cloudy
12:53 PM 77.0 °F 43.0 °F 30% 30.09 in 10.0 mi NE 5.8 mph - N/A   Partly Cloudy
1:53 PM 78.1 °F 44.1 °F 30% 30.06 in 10.0 mi Calm Calm - N/A   Partly Cloudy
2:53 PM 81.0 °F 42.1 °F 25% 30.05 in 10.0 mi Variable 3.5 mph - N/A   Partly Cloudy
3:53 PM 82.0 °F 39.9 °F 22% 30.02 in 10.0 mi NE 8.1 mph - N/A   Partly Cloudy
4:53 PM 82.0 °F 39.9 °F 22% 30.01 in 10.0 mi NNW 3.5 mph - N/A   Partly Cloudy
5:53 PM 82.0 °F 39.0 °F 22% 30.00 in 10.0 mi NNW 8.1 mph - N/A   Clear
6:53 PM 80.1 °F 37.9 °F 22% 29.99 in 10.0 mi North 5.8 mph - N/A   Clear
7:53 PM 73.9 °F 39.9 °F 29% 29.99 in 10.0 mi North 5.8 mph - N/A   Clear
8:53 PM 69.1 °F 39.9 °F 35% 29.99 in 10.0 mi North 6.9 mph - N/A   Clear
9:53 PM 66.0 °F 41.0 °F 40% 30.01 in 10.0 mi North 6.9 mph - N/A   Clear
10:53 PM 64.9 °F 42.1 °F 43% 30.02 in 10.0 mi NNE 5.8 mph - N/A   Clear
11:53 PM 63.0 °F 42.1 °F 46% 30.03 in 10.0 mi NE 6.9 mph - N/A   Clear